{"data":{"norad_id":64214,"intl_designator":"2025-117M","name":"STARLINK-34283","alt_names":[],"object_type":"PAYLOAD","status":"ACTIVE","operator":null,"country":"US","launch_date":"2025-05-31","launch_site_code":"AFWTR","launch_vehicle":null,"mission":null,"orbit_class":"UNKNOWN","rcs_meters":null,"size_class":null,"mass_kg":null,"dimensions":null,"purposes":["comms"],"wikipedia_slug":null,"has_3d_model":false,"image_url":null,"decayed_at":null,"tle_current":{"epoch":"2026-05-24T23:43:26.946048Z","epoch_age_seconds":75755,"freshness":"FRESH","line1":"1 64214U 25117M   26144.98850632  .00030452  00000+0  90846-3 0  9994","line2":"2 64214  53.1602  44.0542 0001095  82.5481 277.5646 15.34410037 56228","mean_motion":15.34410037,"eccentricity":0.0001095,"inclination_deg":53.1602,"raan_deg":44.0542,"arg_perigee_deg":82.5481,"mean_anomaly_deg":277.5646,"bstar":0.00090846,"rev_number":5622,"period_min":93.84714419722,"perigee_km":461.92433955081,"apogee_km":463.42247703023,"semimajor_km":6840.8104082905,"source":"CELESTRAK","updated_at":"2026-05-25T13:38:20.319226Z"}}}